GW4858 Weather Reports


Display with metric or nautical units.
time (UTC)temp
F
wind
direction
speed
MPH
gust
MPH
rain 1hr
in
rain 24hr
in
rain mn
in
humidity
%
barometer
mb
20260506201624 68 299 0.0 3.0 0.00 0.00 0.00 77
20260506201120 67 237 2.0 4.0 0.00 0.00 0.00 77
20260506200617 67 337 2.0 7.0 0.00 0.00 0.00 77
20260506200114 67 294 2.0 8.0 0.00 0.00 0.00 78
20260506195611 67 105 3.0 6.0 0.00 0.00 0.00 78
20260506195107 67 234 3.0 6.0 0.00 0.00 0.00 79
20260506194605 67 302 2.0 6.0 0.00 0.00 0.00 79
20260506194101 66 191 3.0 6.0 0.00 0.00 0.00 80
20260506193559 66 252 6.0 7.0 0.00 0.00 0.00 81
20260506193056 66 235 8.0 10.0 0.00 0.00 0.00 82
20260506192552 66 279 5.0 7.0 0.00 0.00 0.00 82
20260506192048 65 277 3.0 8.0 0.00 0.00 0.00 83
20260506191545 66 37 3.0 8.0 0.00 0.00 0.00 82
20260506191041 65 275 7.0 13.0 0.00 0.00 0.00 83
20260506190538 65 272 2.0 3.0 0.00 0.00 0.00 83
20260506190035 65 216 4.0 6.0 0.00 0.00 0.00 82
20260506185533 66 212 5.0 13.0 0.00 0.00 0.00 81
20260506185029 66 320 4.0 13.0 0.00 0.00 0.00 80
20260506184527 67 290 2.0 8.0 0.00 0.00 0.00 80
20260506184024 67 195 2.0 3.0 0.00 0.00 0.00 80
20260506183519 67 280 1.0 3.0 0.00 0.00 0.00 80
20260506183016 67 147 1.0 3.0 0.00 0.00 0.00 80
20260506182514 66 278 2.0 6.0 0.00 0.00 0.00 81
20260506182010 66 181 2.0 3.0 0.00 0.00 0.00 81
20260506181508 66 190 4.0 4.0 0.00 0.00 0.00 81
20260506181005 66 243 2.0 4.0 0.00 0.00 0.00 82
20260506180502 65 190 2.0 6.0 0.00 0.00 0.00 82
20260506175958 65 194 2.0 6.0 0.00 0.00 0.00 83
20260506175455 65 224 3.0 7.0 0.00 0.00 0.00 83
20260506174951 65 150 5.0 7.0 0.00 0.00 0.00 83
20260506174450 65 218 2.0 7.0 0.00 0.00 0.00 83
20260506173946 65 254 1.0 2.0 0.00 0.00 0.00 83
20260506173443 65 166 1.0 2.0 0.00 0.00 0.00 82
20260506172940 65 114 2.0 3.0 0.00 0.00 0.00 82
20260506172437 66 262 1.0 4.0 0.00 0.00 0.00 82
20260506171934 66 170 3.0 4.0 0.00 0.00 0.00 82
20260506171431 65 280 3.0 7.0 0.00 0.00 0.00 82
20260506170929 65 218 1.0 4.0 0.00 0.00 0.00 82
20260506170425 65 145 3.0 4.0 0.00 0.00 0.00 82
20260506165924 65 271 2.0 3.0 0.00 0.00 0.00 81
20260506165422 65 278 3.0 3.0 0.00 0.00 0.00 81
20260506164918 64 254 2.0 3.0 0.00 0.00 0.00 81
20260506164415 65 319 2.0 4.0 0.00 0.00 0.00 80
20260506163913 65 321 2.0 3.0 0.00 0.00 0.00 79
20260506163407 65 138 1.0 2.0 0.00 0.00 0.00 78
20260506162902 66 204 1.0 3.0 0.00 0.00 0.00 77
20260506162400 66 338 3.0 6.0 0.00 0.00 0.00 76
20260506161857 67 131 3.0 4.0 0.00 0.00 0.00 75
20260506161355 67 171 3.0 4.0 0.00 0.00 0.00 74
20260506160852 68 253 1.0 3.0 0.00 0.00 0.00 73
20260506160349 68 159 1.0 4.0 0.00 0.00 0.00 71
20260506155848 69 317 1.0 4.0 0.00 0.00 0.00 70
20260506155344 69 164 2.0 7.0 0.00 0.00 0.00 69
20260506153502 70 305 2.0 4.0 0.00 0.00 0.00 69
20260506152959 70 169 3.0 4.0 0.00 0.00 0.00 68
20260506152456 69 308 0.0 3.0 0.00 0.00 0.00 69
20260506151954 70 149 2.0 3.0 0.00 0.00 0.00 68
20260506151451 70 215 2.0 3.0 0.00 0.00 0.00 68
20260506150949 70 252 0.0 3.0 0.00 0.00 0.00 67
20260506150444 71 262 1.0 6.0 0.00 0.00 0.00 64
20260506145942 70 137 2.0 11.0 0.00 0.00 0.00 67
20260506145438 69 154 1.0 3.0 0.00 0.00 0.00 70
20260506144936 68 154 2.0 4.0 0.00 0.00 0.00 69
20260506144432 68 295 1.0 6.0 0.00 0.00 0.00 67
20260506143930 70 177 3.0 6.0 0.00 0.00 0.00 63
20260506143427 73 153 4.0 9.0 0.00 0.00 0.00 60
20260506142925 73 113 4.0 7.0 0.00 0.00 0.00 58
20260506142423 73 223 2.0 9.0 0.00 0.00 0.00 59
20260506141921 73 243 3.0 8.0 0.00 0.00 0.00 59
20260506141419 73 181 2.0 8.0 0.00 0.00 0.00 59
20260506140917 73 234 3.0 8.0 0.00 0.00 0.00 60
20260506140413 72 330 1.0 3.0 0.00 0.00 0.00 60
20260506135911 73 151 4.0 7.0 0.00 0.00 0.00 60
20260506135408 73 144 6.0 9.0 0.00 0.00 0.00 59
20260506134904 73 330 3.0 6.0 0.00 0.00 0.00 60
20260506134400 72 309 2.0 6.0 0.00 0.00 0.00 61
20260506133857 72 227 4.0 9.0 0.00 0.00 0.00 61
20260506133353 72 243 4.0 8.0 0.00 0.00 0.00 62
20260506132850 72 239 4.0 6.0 0.00 0.00 0.00 63
20260506132347 71 225 5.0 10.0 0.00 0.00 0.00 63
20260506131846 71 287 4.0 10.0 0.00 0.00 0.00 64
20260506131341 70 184 3.0 9.0 0.00 0.00 0.00 65
20260506130839 70 142 1.0 2.0 0.00 0.00 0.00 66
20260506130335 70 246 7.0 10.0 0.00 0.00 0.00 67
20260506125833 69 242 3.0 3.0 0.00 0.00 0.00 68
20260506125331 68 241 1.0 6.0 0.00 0.00 0.00 70
20260506124829 68 237 4.0 7.0 0.00 0.00 0.00 71
20260506124326 67 228 2.0 7.0 0.00 0.00 0.00 72
20260506123823 66 239 2.0 4.0 0.00 0.00 0.00 72
20260506123322 66 232 4.0 6.0 0.00 0.00 0.00 72
20260506122819 66 313 5.0 7.0 0.00 0.00 0.00 72
20260506122316 66 263 2.0 3.0 0.00 0.00 0.00 72
20260506121814 66 121 4.0 6.0 0.00 0.00 0.00 72
20260506121310 66 237 3.0 6.0 0.00 0.00 0.00 72
20260506120808 66 221 3.0 7.0 0.00 0.00 0.00 72
20260506120305 66 245 3.0 6.0 0.00 0.00 0.00 72
20260506115803 66 255 2.0 3.0 0.00 0.00 0.00 72
20260506115301 66 130 4.0 7.0 0.00 0.00 0.00 73
20260506114758 66 224 5.0 6.0 0.00 0.00 0.00 73
20260506114256 66 226 3.0 8.0 0.00 0.00 0.00 74
20260506113754 65 238 6.0 10.0 0.00 0.00 0.00 75
20260506113251 65 206 4.0 6.0 0.00 0.00 0.00 75
20260506112748 64 294 1.0 2.0 0.00 0.00 0.00 76
20260506112245 64 250 3.0 8.0 0.00 0.00 0.00 76
20260506111742 64 261 3.0 6.0 0.00 0.00 0.00 76
20260506111241 64 234 5.0 7.0 0.00 0.00 0.00 77
20260506110737 64 350 2.0 6.0 0.00 0.00 0.00 78
20260506110235 63 243 2.0 11.0 0.00 0.00 0.00 79
20260506105731 63 263 3.0 4.0 0.00 0.00 0.00 79
20260506105228 63 235 4.0 8.0 0.00 0.00 0.00 79
20260506104726 62 234 5.0 8.0 0.00 0.00 0.00 80
20260506104224 62 240 4.0 8.0 0.00 0.00 0.00 80
20260506103721 62 228 2.0 7.0 0.00 0.00 0.00 80
20260506103218 62 204 2.0 2.0 0.00 0.00 0.00 80
20260506102716 62 96 2.0 4.0 0.00 0.00 0.00 80
20260506102213 62 268 1.0 4.0 0.00 0.00 0.00 80
20260506101710 62 226 4.0 6.0 0.00 0.00 0.00 80
20260506101206 62 264 3.0 7.0 0.00 0.00 0.00 80
20260506100705 62 238 2.0 7.0 0.00 0.00 0.00 80
20260506100202 62 261 1.0 4.0 0.00 0.00 0.00 80
20260506095701 62 104 2.0 6.0 0.00 0.00 0.00 80
20260506095157 62 84 1.0 6.0 0.00 0.00 0.00 80
20260506094654 62 267 2.0 6.0 0.00 0.00 0.00 80
20260506094152 62 178 2.0 3.0 0.00 0.00 0.00 80
20260506093651 62 311 2.0 8.0 0.00 0.00 0.00 80
20260506093147 62 285 3.0 4.0 0.00 0.00 0.00 80
20260506092645 62 243 3.0 6.0 0.00 0.00 0.00 80
20260506092142 62 120 2.0 4.0 0.00 0.00 0.00 80
20260506091640 62 254 5.0 8.0 0.00 0.00 0.00 80
20260506091137 62 259 3.0 9.0 0.00 0.00 0.00 80
20260506090635 62 244 3.0 4.0 0.00 0.00 0.00 80
20260506090131 62 224 3.0 4.0 0.00 0.00 0.00 80
20260506085628 62 245 3.0 6.0 0.00 0.00 0.00 80
20260506085124 62 223 1.0 3.0 0.00 0.00 0.00 80
20260506084621 62 243 3.0 7.0 0.00 0.00 0.00 80
20260506084118 62 90 1.0 2.0 0.00 0.00 0.00 80
20260506083615 62 289 3.0 3.0 0.00 0.00 0.00 80
20260506083113 63 323 0.0 3.0 0.00 0.00 0.00 79
20260506082609 63 314 0.0 2.0 0.00 0.00 0.00 79
20260506082105 63 240 5.0 7.0 0.00 0.00 0.00 79
20260506081603 63 328 2.0 6.0 0.00 0.00 0.00 79
20260506081100 63 205 3.0 4.0 0.00 0.00 0.00 79
20260506080558 63 255 1.0 3.0 0.00 0.00 0.00 78 1014.2
20260506073038 63 266 0.0 4.0 0.00 0.00 0.00 78 1014.2
20260506072535 63 281 2.0 4.0 0.00 0.00 0.00 78 1014.2
20260506072033 63 246 4.0 6.0 0.00 0.00 0.00 78 1014.2
20260506071531 64 274 4.0 6.0 0.00 0.00 0.00 77 1014.2
20260506071028 64 240 2.0 4.0 0.00 0.00 0.00 77 1014.1
20260506070525 64 307 3.0 6.0 0.00 0.00 0.00 77 1014.2
20260506062502 64 222 2.0 8.0 0.00 0.00 0.00 77 1013.9
20260506061959 64 285 3.0 6.0 0.00 0.00 0.00 77 1013.9
20260506061455 64 257 2.0 8.0 0.00 0.00 0.00 76 1014.0
20260506060953 64 272 3.0 4.0 0.00 0.00 0.00 76 1014.0
20260506060451 64 244 2.0 4.0 0.00 0.00 0.00 76 1014.0
20260506050920 64 289 2.0 7.0 0.00 0.00 0.00 73 1014.3
20260506050417 65 271 3.0 4.0 0.00 0.00 0.00 73 1014.5
20260506044908 65 151 2.0 4.0 0.00 0.00 0.00 72 1014.5
20260506044406 65 307 1.0 9.0 0.00 0.00 0.00 71 1014.6
20260506043903 65 214 2.0 6.0 0.00 0.00 0.00 71 1014.6
20260506043400 65 263 3.0 3.0 0.00 0.00 0.00 71 1014.6
20260506042858 65 331 1.0 3.0 0.00 0.00 0.00 71 1014.7
20260506042357 66 312 2.0 3.0 0.00 0.00 0.00 70 1014.6
20260506041855 66 243 3.0 4.0 0.00 0.00 0.00 70 1014.5
20260506041354 66 242 5.0 7.0 0.00 0.00 0.00 70 1014.5
20260506040849 66 262 2.0 4.0 0.00 0.00 0.00 70 1014.6
20260506040346 66 256 1.0 4.0 0.00 0.00 0.00 70 1014.7
20260506035842 66 203 3.0 4.0 0.00 0.00 0.00 69 1014.5
20260506035340 66 289 1.0 4.0 0.00 0.00 0.00 69 1014.7
20260506034837 66 150 2.0 3.0 0.00 0.00 0.00 69 1014.7
20260506034334 66 138 2.0 3.0 0.00 0.00 0.00 69 1014.5
20260506033831 66 276 1.0 3.0 0.00 0.00 0.00 69 1014.7
20260506033328 66 260 2.0 8.0 0.00 0.00 0.00 68 1014.6
20260506032824 67 126 2.0 3.0 0.00 0.00 0.00 68 1014.5
20260506032321 67 276 4.0 7.0 0.00 0.00 0.00 68 1014.4
20260506031818 67 97 4.0 4.0 0.00 0.00 0.00 68 1014.6
20260506031316 67 237 4.0 8.0 0.00 0.00 0.00 68 1014.6
20260506030813 67 247 2.0 6.0 0.00 0.00 0.00 68 1014.5
20260506030311 67 294 3.0 4.0 0.00 0.00 0.00 67 1014.6
20260506025808 67 218 3.0 9.0 0.00 0.00 0.00 67 1014.6
20260506025305 67 264 2.0 6.0 0.00 0.00 0.00 67 1014.9
20260506024801 67 257 4.0 6.0 0.00 0.00 0.00 67 1014.6
20260506024258 67 175 3.0 9.0 0.00 0.00 0.00 67 1014.7
20260506023754 68 264 3.0 6.0 0.00 0.00 0.00 67 1014.7
20260506023251 68 343 2.0 7.0 0.00 0.00 0.00 67 1014.7
20260506022747 68 229 4.0 10.0 0.00 0.00 0.00 66 1014.5
20260506022246 68 204 2.0 4.0 0.00 0.00 0.00 66 1014.9
20260506021744 68 262 8.0 13.0 0.00 0.00 0.00 66 1014.8
20260506021240 68 210 5.0 8.0 0.00 0.00 0.00 65 1014.8
20260506020737 68 210 5.0 13.0 0.00 0.00 0.00 65 1014.9
20260506020235 68 135 0.0 8.0 0.00 0.00 0.00 65 1014.7
20260506015732 68 273 4.0 7.0 0.00 0.00 0.00 64 1014.7
20260506015230 68 159 4.0 13.0 0.00 0.00 0.00 64 1014.7
20260506014726 68 181 6.0 9.0 0.00 0.00 0.00 63 1014.6
20260506014222 69 216 4.0 8.0 0.00 0.00 0.00 63 1014.6
20260506013720 69 247 2.0 7.0 0.00 0.00 0.00 62 1014.5
20260506013217 69 153 5.0 8.0 0.00 0.00 0.00 62 1014.4
20260506012713 69 226 5.0 7.0 0.00 0.00 0.00 61 1014.6
20260506012210 69 228 3.0 7.0 0.00 0.00 0.00 61 1014.5
20260506011708 69 58 2.0 9.0 0.00 0.00 0.00 61 1014.5
20260506011204 69 317 1.0 4.0 0.00 0.00 0.00 60 1014.3
20260506010702 69 246 2.0 6.0 0.00 0.00 0.00 60 1014.4
20260506010159 69 216 3.0 4.0 0.00 0.00 0.00 59 1014.2
20260506005656 69 228 1.0 4.0 0.00 0.00 0.00 59 1014.2
20260506005153 69 161 4.0 6.0 0.00 0.00 0.00 59 1014.1
20260506004649 69 133 2.0 4.0 0.00 0.00 0.00 58 1014.0
20260506004146 69 302 2.0 7.0 0.00 0.00 0.00 58 1013.9
20260506003642 70 214 2.0 9.0 0.00 0.00 0.00 58 1013.9
20260506003139 70 207 5.0 8.0 0.00 0.00 0.00 58 1014.0
20260506002635 70 297 1.0 6.0 0.00 0.00 0.00 57 1014.0
20260506002131 70 263 3.0 6.0 0.00 0.00 0.00 57 1013.9
20260506001627 70 240 4.0 8.0 0.00 0.00 0.00 56 1013.8
20260506001125 71 214 3.0 4.0 0.00 0.00 0.00 56 1013.9
20260506000622 71 261 5.0 7.0 0.00 0.00 0.00 56 1013.6
20260506000119 71 304 4.0 7.0 0.00 0.00 0.00 56 1013.5
20260505235617 71 301 1.0 6.0 0.00 0.00 0.00 56 1013.8
20260505235114 71 346 1.0 10.0 0.00 0.00 0.00 56 1013.7
20260505234611 71 258 4.0 7.0 0.00 0.00 0.00 56 1013.4
20260505234107 71 274 4.0 4.0 0.00 0.00 0.00 56 1013.6
20260505233605 72 130 2.0 6.0 0.00 0.00 0.00 55 1013.3
20260505233102 72 247 2.0 8.0 0.00 0.00 0.00 55 1013.4
20260505232600 72 121 3.0 7.0 0.00 0.00 0.00 54 1013.1
20260505232057 72 218 2.0 6.0 0.00 0.00 0.00 54 1013.0
20260505231554 73 255 3.0 4.0 0.00 0.00 0.00 53 1013.1
20260505231053 73 320 2.0 7.0 0.00 0.00 0.00 53 1013.0
20260505230550 73 239 5.0 7.0 0.00 0.00 0.00 53 1013.0
20260505230046 73 287 1.0 6.0 0.00 0.00 0.00 53 1012.8
20260505225543 73 246 2.0 7.0 0.00 0.00 0.00 54 1012.6
20260505225039 73 303 2.0 7.0 0.00 0.00 0.00 54 1012.6
20260505224536 73 221 2.0 4.0 0.00 0.00 0.00 53 1012.5
20260505224033 74 277 2.0 4.0 0.00 0.00 0.00 53 1012.6
20260505223530 74 265 7.0 11.0 0.00 0.00 0.00 52 1012.4
20260505223026 74 265 2.0 6.0 0.00 0.00 0.00 53 1012.7
20260505222523 74 322 2.0 6.0 0.00 0.00 0.00 53 1012.6
20260505222019 74 192 4.0 8.0 0.00 0.00 0.00 52 1012.4
20260505221517 74 235 3.0 4.0 0.00 0.00 0.00 52 1012.4
20260505221013 75 240 3.0 7.0 0.00 0.00 0.00 53 1012.4
20260505220510 75 254 3.0 9.0 0.00 0.00 0.00 53 1012.4
20260505220008 75 242 4.0 6.0 0.00 0.00 0.00 53 1012.4
20260505215506 75 229 2.0 8.0 0.00 0.00 0.00 52 1012.2
20260505215003 75 269 1.0 7.0 0.00 0.00 0.00 53 1012.2
20260505214502 75 210 5.0 6.0 0.00 0.00 0.00 54 1012.3
20260505213958 75 138 3.0 6.0 0.00 0.00 0.00 54 1012.1
20260505213456 75 248 2.0 4.0 0.00 0.00 0.00 55 1012.2
20260505212952 75 209 4.0 7.0 0.00 0.00 0.00 55 1012.1
20260505212448 75 148 3.0 8.0 0.00 0.00 0.00 55 1012.0
20260505211945 75 119 4.0 6.0 0.00 0.00 0.00 55 1011.9
20260505211443 75 234 4.0 7.0 0.00 0.00 0.00 56 1012.0
20260505210939 75 201 2.0 4.0 0.00 0.00 0.00 56 1011.9
20260505210436 75 230 5.0 8.0 0.00 0.00 0.00 56 1011.8
20260505205933 75 127 5.0 7.0 0.00 0.00 0.00 56 1012.1
20260505205431 75 160 4.0 6.0 0.00 0.00 0.00 56 1012.0
20260505204928 75 159 2.0 6.0 0.00 0.00 0.00 56 1012.0
20260505204426 75 242 3.0 6.0 0.00 0.00 0.00 56 1011.9
20260505203923 75 222 4.0 6.0 0.00 0.00 0.00 56 1012.0
20260505203419 75 236 2.0 9.0 0.00 0.00 0.00 56 1011.9
20260505202915 75 202 3.0 6.0 0.00 0.00 0.00 56 1011.9
20260505202411 75 197 4.0 6.0 0.00 0.00 0.00 56 1011.9